Weather History for Easton, MD

Change the Weather History Date:

Tuesday, February 5, 2013

  Actual Average Record
Temperature  
Mean Temperature 36 °F -  
Max Temperature 42 °F 42 °F 64 °F (1962)
Min Temperature 28 °F 24 °F 11 °F (1965)
Degree Days  
Heating Degree Days 29    
Moisture  
Dew Point 30 °F    
Average Humidity 84    
Maximum Humidity 100    
Minimum Humidity 65    
Precipitation  
Precipitation 0.00 in - - ()
Sea Level Pressure  
Sea Level Pressure 29.93 in    
Wind  
Wind Speed 3 mph (SW)    
Max Wind Speed 8 mph    
Max Gust Speed -    
Visibility 10 miles    
Events      
Averages and records for this station are not official NWS values.
T = Trace of Precipitation, MM = Missing Value Source: NWS Daily Summary

Daily Weather History Graph

Daily Weather History Graph

Search for Another Location

Airport:

Trip Planner

Search our weather history database for the weather conditions in past years. The results will help you decide how hot, cold, wet, or windy it might be!

Date:

Astronomy

Feb. 05, 2013 Rise Set
Actual Time 7:06 AM EST 5:30 PM EST
Civil Twilight 6:38 AM EST 5:58 PM EST
Nautical Twilight 6:06 AM EST 6:30 PM EST
Astronomical Twilight 5:35 AM EST 7:01 PM EST
Moon 2:44 AM EST (2/5) 12:47 PM EST (2/5)
Length of Visible Light 11h 20m
Length of Day
10h 24m
Waning Crescent, 27% of the Moon is Illuminated
Feb 5
Waning Crescent
Feb 10
New
Feb 17
First Quarter
Feb 25
Full
Mar 4
Last Quarter

Hourly Weather History & Observations

Time (EST) Temp. Windchill Dew Point Humidity Pressure Visibility Wind Dir Wind Speed Gust Speed Precip Events Conditions
12:10 AM 35.6 °F 29.2 °F 31.6 °F 85% 29.94 in 10.0 mi SSW 8.1 mph - N/A   Clear
12:32 AM 36.0 °F 30.3 °F 31.1 °F 82% 29.93 in 10.0 mi SSW 6.9 mph - N/A   Clear
12:53 AM 36.5 °F 31.8 °F 30.6 °F 79% 29.93 in 10.0 mi SSW 5.8 mph - N/A   Mostly Cloudy
1:14 AM 36.7 °F 34.1 °F 30.2 °F 77% 29.94 in 10.0 mi SW 3.5 mph - N/A   Scattered Clouds
1:36 AM 36.0 °F 31.1 °F 30.4 °F 80% 29.93 in 10.0 mi SSW 5.8 mph - N/A   Clear
1:57 AM 36.5 °F 31.8 °F 30.2 °F 78% 29.93 in 10.0 mi SW 5.8 mph - N/A   Scattered Clouds
2:18 AM 36.9 °F 33.1 °F 29.8 °F 76% 29.93 in 10.0 mi SW 4.6 mph - N/A   Scattered Clouds
2:40 AM 36.1 °F - 29.8 °F 78% 29.93 in 10.0 mi Calm Calm - N/A   Scattered Clouds
3:01 AM 35.6 °F - 29.3 °F 78% 29.93 in 10.0 mi Calm Calm - N/A   Scattered Clouds
3:23 AM 34.2 °F - 29.3 °F 82% 29.92 in 10.0 mi Calm Calm - N/A   Clear
3:44 AM 33.3 °F 30.2 °F 29.5 °F 86% 29.91 in 10.0 mi South 3.5 mph - N/A   Clear
4:05 AM 32.9 °F 28.5 °F 29.3 °F 87% 29.91 in 10.0 mi South 4.6 mph - N/A   Scattered Clouds
4:27 AM 33.8 °F - 29.5 °F 84% 29.91 in 10.0 mi Calm Calm - N/A   Scattered Clouds
4:48 AM 32.7 °F - 29.3 °F 87% 29.91 in 10.0 mi Calm Calm - N/A   Scattered Clouds
5:09 AM 32.0 °F - 30.2 °F 93% 29.91 in 10.0 mi Calm Calm - N/A   Clear
5:31 AM 32.5 °F - 29.3 °F 88% 29.91 in 10.0 mi Calm Calm - N/A   Scattered Clouds
5:50 AM 32.0 °F - 28.4 °F 87% 29.91 in 10.0 mi Calm Calm - N/A   Scattered Clouds
5:52 AM 32.4 °F - 29.7 °F 90% 29.91 in 10.0 mi Calm Calm - N/A   Scattered Clouds
6:13 AM 31.6 °F - 29.3 °F 91% 29.92 in 10.0 mi Calm Calm - N/A   Clear
6:35 AM 32.0 °F - 30.2 °F 93% 29.92 in 10.0 mi Calm Calm - N/A   Scattered Clouds
6:40 AM 31.3 °F - 29.8 °F 94% 29.92 in 10.0 mi Calm Calm - N/A   Scattered Clouds
6:50 AM 30.2 °F - 30.2 °F 100% 29.93 in 10.0 mi Calm Calm - N/A   Mostly Cloudy
7:51 AM 32.0 °F - 30.2 °F 93% 29.95 in 10.0 mi Calm Calm - N/A   Scattered Clouds
8:50 AM 35.6 °F - 32.0 °F 87% 29.95 in 10.0 mi Calm Calm - N/A   Mostly Cloudy
9:50 AM 42.8 °F - 32.0 °F 66% 29.97 in 10.0 mi Calm Calm - N/A   Scattered Clouds
10:50 AM 41.0 °F 39.0 °F 30.2 °F 65% 29.96 in 10.0 mi NNW 3.5 mph - N/A   Overcast
11:50 AM 41.0 °F 37.1 °F 30.2 °F 65% 29.95 in 10.0 mi North 5.8 mph - N/A   Overcast
1:53 PM 41.0 °F 37.1 °F 30.2 °F 65% 29.90 in 10.0 mi NE 5.8 mph - N/A   Overcast
2:53 PM 41.0 °F 37.1 °F 30.2 °F 65% 29.90 in 10.0 mi NE 5.8 mph - N/A   Overcast
5:53 PM 37.4 °F 32.8 °F 30.2 °F 75% 29.91 in 10.0 mi NE 5.8 mph - N/A   Overcast
6:53 PM 35.6 °F - 30.2 °F 81% 29.93 in 10.0 mi Calm Calm - N/A   Overcast
7:53 PM 35.6 °F 31.7 °F 30.2 °F 81% 29.94 in - NNE 4.6 mph - N/A   Mostly Cloudy
8:53 PM 33.8 °F - 30.2 °F 87% 29.93 in 10.0 mi Calm Calm - N/A   Overcast
9:50 PM 33.3 °F 30.2 °F 31.1 °F 92% 29.95 in 10.0 mi NE 3.5 mph - N/A   Scattered Clouds
10:11 PM 32.0 °F - 30.6 °F 94% 29.95 in 10.0 mi Calm Calm - N/A   Scattered Clouds
10:32 PM 32.0 °F - 30.4 °F 94% 29.95 in 10.0 mi Calm Calm - N/A   Scattered Clouds
10:54 PM 32.0 °F - 30.6 °F 94% 29.95 in 10.0 mi Calm Calm - N/A   Scattered Clouds
11:15 PM 32.0 °F - 30.9 °F 96% 29.95 in 10.0 mi Calm Calm - N/A   Scattered Clouds
11:36 PM 31.6 °F - 30.6 °F 96% 29.95 in 10.0 mi Calm Calm - N/A   Scattered Clouds
11:58 PM 28.9 °F 23.9 °F 28.9 °F 100% 29.97 in 5.0 mi North 4.6 mph - N/A   Clear